National Oceanic Atmosphere Administration National Weather Service Headquarters National Weather Service Headquarters
NOAA logo WFO Anchorage Scalable transition graphic NWS logo
Transition from title bar to navgation bar   Aviation Weather 10 AKDT 
blankspace Home   |   Mobile   |   Social Media   |   Mesonet   |   Surface Map   |   Radar   |   Submit Storm Reports   |   News =18 GMT 

LocalForecast by City, St or Zip Code

spacer

Forecasts/Products
  Public
  Forecast Discussion
    - With Glossary
  Aviation
  Marine
  Hydrology(RFC)
  Rivers & Lakes AHPS
  Ice Desk
  TV Weather
  Fire Weather
  Avalanche
  Travel 511
  Graphical
  xml logo RSS Feeds
  Marine FTPMail

spacer

Data
  Mesonet
  Model Graphics
  Local Model
  Observations
  Marine Obs
  Satellite/Radar
  Vent Factor
  Soaring Index
  Weather Links

spacer

Climate
  PAFC Climate
  Interactive Climate
  PAFC Records
  Local
  National
  More

spacer

Outreach
  About Us
  Community Outreach
  Kids' Page
  Tour/Speaker Request
  Weather Classroom
  Social Media

spacer

Reports
  COOP Observers
  Local Storm Reports
  Spotter Page
  Submit a Storm Report

spacer

Miscellaneous
  Archived Alaska Weather Stories
  Student Career Opportunities
  Research Papers

spacer

Print Friendly/
Low Bandwidth

  Public Forecasts
  Marine Forecasts

spacer

Contact Us
  mailto pafcweb

spacer

Facebook Follow the National Weather Service in Alaska on Twitter
USA.gov is the U.S. government's official web portal to all federal, state and local government web resources and services.


 ICAO ID:   AAWU Graphics

Internet access to TAFs and METAR observations is for planning purposes only. We can not guarantee the timeliness of internet products. Before flying please get a formal pilot briefing (1-800-992-7433) and ALWAYS file a Flight Plan!Pilot briefings are provided to licensed aircraft pilots, ONLY! Others may not use the above number to obtain weather information.

Check out the Key to TAFs and METARs for help with decoding the information.

A 12 hour summary of TAFs can be found here.

PAFA TAF
PAFA 311740Z 3118/0124  05006KT P6SM SCT060 BKN120
     FM312100 04010KT P6SM SCT080 BKN150
     FM010500 02005KT P6SM SCT150=


METAR PAFA 311753Z 03004KT 10SM FEW065 SCT120 M17/M19 A2943 RMK AO2
     SLP978 60000 T11671194 11094 21167 56008=
METAR PAFA 311753Z 03004KT 10SM FEW065 SCT120 M17/M19 A2943=
METAR PAFA 311653Z 00000KT 10SM FEW065 BKN120 M13/M16 A2944 RMK AO2
 SLP980 T11331156=
METAR PAFA 311553Z 17005KT 10SM SCT065 BKN120 M12/M15 A2944 RMK AO2
     SNE51 SLP979 P0000 T11171150=
METAR PAFA 311553Z 17005KT 10SM SCT065 BKN120 M12/M15 A2944=
METAR PAFA 311453Z 00000KT 9SM -SN FEW005 OVC075 M12/M14 A2945 RMK AO2
     SLP984 P0000 60000 T11171144 58019=
METAR PAFA 311453Z 00000KT 9SM -SN FEW005 OVC075 M12/M14 A2945=


National Weather Service
Anchorage Forecast Office
6930 Sand Lake Road
Anchorage, Ak 99502
(907) 266-5105 M-F/7-5pm
About Us
Career Opportunities
Glossary
Disclaimer
Privacy Policy
Credits
Alaska Weather Information Line:
1-800-472-0391